Airfield :
LOGIN :

Register | Disclaimer

   EN    FR    IT 

 










Legend :    VFR   Marginal VFR   IFR   Intensive IFR   Very Intensive IFR
Visi :
Ceiling :
>= 8 km
>= 3000ft
5 to 8 km
1000 to 3000 ft
1500m to 5 km
500 to 1000 ft
800 to 1500m
200 to 500 ft
< 800m
< 200 ft
Symbols :   Thunderstorms  Fog  Heavy snow  Heavy precipitations  Wind > 20 kt
SIGMETs :     Misc.  Thunderstorms  Icing  Turbulence  Mountain Waves  Volcanic Ashes







- Airport Elevation : 610 ft
- IATA code : VXO


ESMX - Växjö Kronoberg

CURRENT METAR :
  • 170320Z AUTO 00000KT 6000 BR NCD M04/M04 Q1016

EXPIRED METARs :
  • 170250Z AUTO 00000KT 0900 R01/P2000N R19/P2000D BR SCT051/// M04/M04 Q1016
  • 170220Z AUTO 06002KT 9999 SCT013/// M02/M02 Q1015
  • 170150Z AUTO 00000KT 9999 FEW008/// OVC012/// M02/M02 Q1016
  • 170120Z AUTO VRB03KT 9999 OVC007/// M02/M02 Q1016
  • 170050Z AUTO 22004KT 9999 SCT002/// OVC008/// M02/M02 Q1015 RESHUP RESG

Expired Forecast.
No reported NOTAMs for that airfield.



MET'MAP, your aeronautical weather chart ! - Copyright ORBIFLY December 2007 - Disclaimer

ORBIFLY MET'MAP TEAM :

Programming & Development : Alexandra Zaïnal
Concept & Development : Baudouin d'Aumeries
Co-Development & Prog : Marc-Olivier Méhu
Technical & hardware support : Manuel Goepfert

Contact : metmap@orbifly.com




SOURCES & CREDITS :

   NOAA